Regional Weather Roundup
Issued by NWS Green Bay, WI

Home | Current Version | Previous Version | Text Only | Print | Product List | Glossary On
Versions: 1 2 3 4 5 6 7 8 9 10 11 12 13 14 15 16 17 18 19 20 21 22 23 24 25 26 27 28 29 30 31 32 33 34 35 36 37 38 39 40 41 42 43 44 45 46 47 48 49 50
000
ASUS43 KGRB 211010
RWRGRB

NORTH-CENTRAL AND NORTHEAST WISCONSIN REGIONAL WEATHER ROUNDUP
NATIONAL WEATHER SERVICE GREEN BAY WI
500 AM CDT TUE APR 21 2015

WIZ005-009-010>012-018-019-211100-
NORTH CENTRAL WISCONSIN

CITY           SKY/WX    TMP DP  RH WIND       PRES   REMARKS
IRONWOOD       CLOUDY    32  30  93 W15       29.28S
MANITOWISH WTR LGT SNOW  31  30  97 W13G21    29.30S
ARBOR VITAE    LGT SNOW  32  30  93 W9G17     29.31S
EAGLE RIVER    LGT SNOW  32  31  95 W10G17    29.29S
LAND O LAKES   LGT SNOW  32  31  96 W6        29.29S
RHINELANDER    LGT SNOW  32  29  88 W15       29.33S FOG
PHILLIPS       FLURRIES  32  28  88 W7        29.35S
ANTIGO         LGT SNOW  32  31  95 W13       29.35S
TOMAHAWK       FLURRIES  32  29  88 W7        29.36S
MERRILL        CLOUDY    33  31  91 W13       29.37S
$$

WIZ013-073-211100-
NORTHEAST WISCONSIN

CITY           SKY/WX    TMP DP  RH WIND       PRES   REMARKS
IRON MOUNTAIN  CLOUDY    34  29  82 SW12      29.29S
MARINETTE      CLOUDY    37  27  65 W8G16     29.36S
OCONTO         CLOUDY    36  31  82 W9        29.38S
$$

WIZ017-030-035>037-045-211100-
CENTRAL WISCONSIN

CITY           SKY/WX    TMP DP  RH WIND       PRES   REMARKS
MEDFORD        LGT SNOW  31  30  94 W14       29.38F
WAUSAU         LGT SNOW  33  29  85 W16G25    29.38R FOG
MOSINEE        FLURRIES  32  32 100 W12G18    29.41S
MARSHFIELD     LGT SNOW  33  30  88 W14G22    29.42S FOG
WISC RAPIDS    FLURRIES  34  30  85 W10       29.45S
STEVENS POINT  MIX PCPN  32  30  92 W13       29.42S
WAUPACA        DRIZZLE   38  32  81 W15G21    29.43S
SHAWANO        CLOUDY    37  32  82 W8        29.40S
CLINTONVILLE   CLOUDY    36  30  80 W9        29.40F
$$

WIZ038-039-048-051-211100-
FOX VALLEY

CITY           SKY/WX    TMP DP  RH WIND       PRES   REMARKS
NWS GREEN BAY  CLOUDY    38  31  76 W13       29.41S
APPLETON       CLOUDY    36  30  80 W10       29.42F
OSHKOSH        CLOUDY    36  31  82 W12G18    29.44S
FOND DU LAC    LGT SNOW  34  31  88 SW8       29.46S FOG
$$

WIZ022-050-052-211100-
EAST CENTRAL WISCONSIN

CITY           SKY/WX    TMP DP  RH WIND       PRES   REMARKS
STURGEON BAY   CLOUDY    37  28  70 SW13      29.40S
MANITOWOC      MIX PCPN  37  33  85 W12       29.43R
SHEBOYGAN      CLOUDY    38  31  76 W12       29.44F
$$

LMZ563-521-522-541>543-211100-
LAKESHORE

STATION/POSITION TIME  TEMP    WIND        PRES    VSBY  WAVE
                       AIR SEA DIR/SP/G                  HT/PER
                 (UTC) (F)     (DEG/KT/KT) (MB)    (MI)  (FT/S)
SHEBOYGAN LKSHOR 1000   40     240/ 14/ 19  997.7F
KEWAUNEE LKSHORE 1000   39     270/ 13/ 19  995.3S
NORTHPORT PIER   1000   38     240/  6/ 13  994.6S
SISTER BAY LKSHO 1000   39     250/ 17/ 19   N/A
CHAMBERS ISLAND  1000   38     220/  8/ 13  994.9S
MENOMINEE LKSHOR 1000   38     230/ 12/ 17  995.3S
$$


USA.gov is the U.S. government's official web portal to all federal, state and local government web resources and services.